Погода в Виченце

Италия     45°33′47″N   11°32′04″E
темп.,
°C
ветер,
м/с
пор.,
м/с
влажн.,
%
обл.,
%
осадки,
мм/ч
давл.,
гПа
погр.,
м
21 апреля, ср
ср2123:00+10ссв35818 0.2 1016224
02:00+9ссв248927 0.4 1017176
05:00+9ссв11895 0.0 101738
08:00+10ссв11815 0.0 1018148
11:00+15вюв116114 0.0 1018864
14:00+17ююв1257100 1.1 10171348
17:00+16ю0261100 2.6 1016992
20:00+13св227994 3.2 101743
22 апреля, чт
чт2223:00+10ссв23925 0.5 1018109
02:00+9ссв23937 0.5 101992
05:00+9ссв12935 0.0 101840
08:00+10ссв12875 0.0 1019129
11:00+15всв11662 0.0 1019707
14:00+19ю11475 0.1 10181527
17:00+19юз114495 0.0 10161912
20:00+16св1155100 0.0 101751
23 апреля, пт
пт2323:00+14ссв2475100 0.1 1019246
02:00+13ссв3582100 0.1 1020340
05:00+12ссв248774 0.0 1020269
08:00+12св238873 0.0 1022297
11:00+13всв3482100 1.3 1023757
14:00+14ссв227826 1.8 1023693
17:00+17всв125941 0.0 10211151
20:00+15ссв116542 0.1 102215
24 апреля, сб
сб2423:00+12с23785 0.0 102368
02:00+11с11765 0.0 102314
05:00+10с11775 0.0 102321
08:00+12ссв12703 0.0 1024127
11:00+16в33505 0.0 1023961
14:00+19вюв21422 0.0 10221569
17:00+19ююв114310 0.0 10201627
20:00+16ююв226297 0.0 102039
25 апреля, вс
вс2523:00+14сз1165100 0.0 102130
02:00+12зсз1170100 0.0 102113
05:00+12зсз117397 0.0 102011
08:00+13ссв017153 0.0 1021114
11:00+17вюв115597 0.0 1021728
14:00+20юв214535 0.0 10191646
17:00+19ююв1144100 0.0 10181491
20:00+17вюв136199 0.0 1019172